North Pole, Alaska, United States (99705)
Lat: 64.75N, Lon: 147.35W
Wx Zone: AKZ222
Local Info
Past Weather Observations for Tuesday, April 21, 2015

NOTE: This archive is for the closest National Weather Service station to North Pole. Information may differ from the station used for current weather conditions.

Click here for Long-term Archive

Time Weather Temperature Dewpoint Humidity Pressure Winds Precip Visibility
23:56
Clear
28°F / -2°C 18°F / -8°C 64% 29.89 in
(1012 mb)
ENE 3.5 mph
(ENE 6 kph)
- 10SM
22:56
Clear
30°F / -1°C 19°F / -7°C 64% 29.89 in
(1012 mb)
Calm - 10SM
21:56
Clear
34°F / 1°C 18°F / -8°C 51% 29.86 in
(1011 mb)
ENE 3.5 mph
(ENE 6 kph)
- 10SM
20:56
Clear
37°F / 3°C 18°F / -8°C 45% 29.86 in
(1011 mb)
S 4.6 mph
(S 7 kph)
- 10SM
20:55
Partly Cloudy
37°F / 3°C 18°F / -8°C 45% 29.83 in
(1010 mb)
S 5.8 mph
(S 9 kph)
- 25SM
19:55
Partly Cloudy
41°F / 5°C 18°F / -8°C 39% 29.83 in
(1010 mb)
S 6.9 mph
(S 11 kph)
- 25SM
18:55
Mostly Cloudy
43°F / 6°C 18°F / -8°C 36% 29.83 in
(1010 mb)
SW 6.9 mph
(SW 11 kph)
- 25SM
17:55
Mostly Cloudy
43°F / 6°C 16°F / -9°C 34% 29.83 in
(1010 mb)
SW 6.9 mph
(SW 11 kph)
- 25SM
16:55
Mostly Cloudy
43°F / 6°C 16°F / -9°C 34% 29.83 in
(1010 mb)
SSW 9.2 mph
(SSW 15 kph)
- 25SM
15:55
Mostly Cloudy
41°F / 5°C 19°F / -7°C 42% 29.83 in
(1010 mb)
W 10.4 mph
(W 17 kph)
- 25SM
14:55
Overcast
43°F / 6°C 16°F / -9°C 34% 29.83 in
(1010 mb)
SSW 17.3 mph
(SSW 28 kph)
- 25SM
13:55
Overcast
43°F / 6°C 18°F / -8°C 36% 29.83 in
(1010 mb)
SSW 13.8 mph
(SSW 22 kph)
- 25SM
12:55
Mostly Cloudy
41°F / 5°C 16°F / -9°C 36% 29.83 in
(1010 mb)
SW 13.8 mph
(SW 22 kph)
- 13SM
11:55
Mostly Cloudy
43°F / 6°C 18°F / -8°C 36% 29.8 in
(1009 mb)
SW 11.5 mph
(SW 19 kph)
- 13SM
10:55
Partly Cloudy
39°F / 4°C 16°F / -9°C 39% 29.8 in
(1009 mb)
SSW 15 mph
(SSW 24 kph)
- 13SM
09:55
Partly Cloudy
37°F / 3°C 18°F / -8°C 45% 29.8 in
(1009 mb)
SSW 11.5 mph
(SSW 19 kph)
- 13SM
08:55
Mostly Cloudy
36°F / 2°C 18°F / -8°C 48% 29.8 in
(1009 mb)
SSW 13.8 mph
(SSW 22 kph)
- 13SM
07:55
Mostly Cloudy
34°F / 1°C 18°F / -8°C 51% 29.77 in
(1008 mb)
SW 11.5 mph
(SW 19 kph)
- 13SM
06:55
Mostly Cloudy
32°F / 0°C 18°F / -8°C 55% 29.77 in
(1008 mb)
SSW 9.2 mph
(SSW 15 kph)
- 13SM
05:55
Partly Cloudy
30°F / -1°C 19°F / -7°C 64% 29.77 in
(1008 mb)
SSW 9.2 mph
(SSW 15 kph)
- 13SM
05:15
Mostly Cloudy
30°F / -1°C 19°F / -7°C 64% 29.74 in
(1007 mb)
SSW 10.4 mph
(SSW 17 kph)
- 13SM
04:56
Overcast
30°F / -1°C 19°F / -7°C 64% 29.74 in
(1007 mb)
SSW 10.4 mph
(SSW 17 kph)
- 10SM
03:56
Overcast
30°F / -1°C 19°F / -7°C 64% 29.74 in
(1007 mb)
SW 10.4 mph
(SW 17 kph)
- 10SM
02:56
Overcast
30°F / -1°C 21°F / -6°C 69% 29.71 in
(1006 mb)
SSW 9.2 mph
(SSW 15 kph)
- 10SM
01:56
Overcast
32°F / 0°C 21°F / -6°C 64% 29.71 in
(1006 mb)
SW 11.5 mph
(SW 19 kph)
- 10SM
01:48
Overcast
34°F / 1°C 23°F / -5°C 65% 29.71 in
(1006 mb)
SW 12.7 mph
(SW 20 kph)
- 10SM
01:22
Overcast
34°F / 1°C 25°F / -4°C 70% 29.68 in
(1005 mb)
SSW 13.8 mph
(SSW 22 kph)
- 10SM
00:56
Overcast
34°F / 1°C 25°F / -4°C 70% 29.68 in
(1005 mb)
SSW 11.5 mph
(SSW 19 kph)
- 10SM
Time Weather Temperature Dewpoint Humidity Pressure Winds Precip Visibility


Weather for websites

WeatherForYou.com, LLC is not responsible for any damages or problems caused by this service. Current weather conditions are obtained from the closest station including government and personal stations which may have varying degrees of accuracy. Weather forecasts are derived from the NOAA NDFD. Like all things, this site belongs to Jesus Christ... He just trusts us to maintain it. If you have any questions or comments email webmaster@weatherforyou.com

Copyright © 2015, WeatherForYou.com LLC. All rights reserved.